User: anonymous   Login
Location: Unspecified
(0.0000°N, 0.0000°E)
Time: 23:17:31
(UTC+00:00)
Language:

STARLINK-3873 - Orbit

View from above orbital plane
View from above orbital plane
View from above satellite
View from above satellite

Ground track
Ground track

The orbit is defined by the following mean orbital elements,

1 52467U          26145.50349126 +.00000000 +00000-0 +37226-4 0 00009
2 52467  53.2138  74.2893 0001102  56.9215 303.1883 15.08832350    04
Epoch (UTC): 25 May 2026 12:05:01
Eccentricity: 0.0001102
inclination: 53.2138°
perigee height: 539 km
apogee height: 541 km
right ascension of ascending node: 74.2893°
argument of perigee: 56.9215°
revolutions per day: 15.08832350
mean anomaly at epoch: 303.1883°

The dashed part of the orbit path shows where the satellite is in the earth's shadow,  

DLR